User: anonymous   Login
Location: Allison's Woods
(35.8809°N, 80.8140°W)
Time: 14:50:38
(UTC-04:00)
Language:

Iridium 39 - Orbit

View from above orbital plane
View from above orbital plane
View from above satellite
View from above satellite

Ground track
Ground track

The orbit data is extracted from the following two-line orbital elements,

1 25042U 97069D   16212.32940695  .00000112  00000-0  25736-4 0  9995
2 25042  86.3963 156.5246 0017173 307.9158  52.0491 14.46071251980202
Epoch (UTC): 30 July 2016 07:54:20
Eccentricity: 0.0017173
inclination: 86.3963°
perigee height: 726 km
apogee height: 751 km
right ascension of ascending node: 156.5246°
argument of perigee: 307.9158°
revolutions per day: 14.46071251
mean anomaly at epoch: 52.0491°
orbit number at epoch: 98020

The dashed part of the orbit path shows where the satellite is in the earth's shadow,  

DLR